UAE821 OMDB-OEDF

Flight info

Callsign UAE821
Flight time N/A
Altitude 26000
Route NABIX P699 ORMID P699 NARMI J735 KFA
Aircraft A359/H-SDE2E3GHIJ3J4J5LM1ORWXY/LB1D1

Departure

Time N/A
Airport Dubai International Airport (OMDB)

Arrival

Time 2026-04-25 12:37
Airport King Fahd International Airport (OEDF)
Time Latitude Longitude Altitude Speed Heading
2026-04-25 12:15 26.27136 51.76573 25929 ft 458 kts 295°
2026-04-25 12:15 26.28638 51.73372 25928 ft 473 kts 294°
2026-04-25 12:15 26.30124 51.70039 25928 ft 486 kts 293°
2026-04-25 12:16 26.31616 51.66620 25928 ft 496 kts 292°
2026-04-25 12:16 26.33134 51.63145 25915 ft 487 kts 293°
2026-04-25 12:16 26.34583 51.59865 25929 ft 478 kts 292°
2026-04-25 12:16 26.36024 51.56499 25857 ft 478 kts 289°
2026-04-25 12:17 26.36999 51.52970 25772 ft 474 kts 278°
2026-04-25 12:17 26.37255 51.49334 25700 ft 471 kts 266°
2026-04-25 12:17 26.37030 51.45706 25623 ft 471 kts 263°
2026-04-25 12:17 26.36632 51.42105 25564 ft 470 kts 261°
2026-04-25 12:18 26.36145 51.38525 25479 ft 468 kts 260°
2026-04-25 12:18 26.34734 51.28783 25270 ft 467 kts 260°
2026-04-25 12:19 26.34009 51.21622 25094 ft 462 kts 264°
2026-04-25 12:19 26.33817 51.18067 25018 ft 462 kts 265°
2026-04-25 12:19 26.33662 51.14474 24963 ft 462 kts 266°
2026-04-25 12:20 26.33525 51.10876 24907 ft 463 kts 266°
2026-04-25 12:20 26.33391 51.07280 24845 ft 464 kts 266°
2026-04-25 12:20 26.33253 51.03690 24785 ft 464 kts 266°
2026-04-25 12:20 26.33109 51.00103 24724 ft 464 kts 266°
2026-04-25 12:21 26.32960 50.96529 24727 ft 460 kts 266°
2026-04-25 12:21 26.32814 50.93060 24471 ft 430 kts 265°
2026-04-25 12:21 26.32673 50.89757 23731 ft 427 kts 265°
2026-04-25 12:21 26.32531 50.86529 22568 ft 415 kts 266°
2026-04-25 12:22 26.32390 50.83340 20827 ft 408 kts 266°
2026-04-25 12:22 26.32252 50.80228 19733 ft 391 kts 266°
2026-04-25 12:22 26.32124 50.77322 19274 ft 361 kts 266°
2026-04-25 12:22 26.32003 50.74591 18772 ft 354 kts 266°
2026-04-25 12:23 26.31877 50.71831 18183 ft 357 kts 266°
2026-04-25 12:23 26.31750 50.69059 17535 ft 357 kts 266°
2026-04-25 12:23 26.31623 50.66299 16924 ft 356 kts 266°
2026-04-25 12:23 26.31498 50.63547 16328 ft 355 kts 266°
2026-04-25 12:24 26.31372 50.60797 15735 ft 355 kts 266°
2026-04-25 12:24 26.31247 50.58056 15130 ft 354 kts 266°
2026-04-25 12:24 26.31122 50.55318 14532 ft 353 kts 266°
2026-04-25 12:24 26.30997 50.52588 13926 ft 353 kts 266°
2026-04-25 12:25 26.30871 50.49858 13273 ft 352 kts 266°
2026-04-25 12:25 26.30745 50.47145 12667 ft 350 kts 266°
2026-04-25 12:25 26.30621 50.44488 12464 ft 335 kts 266°
2026-04-25 12:25 26.30505 50.41961 12332 ft 318 kts 265°
2026-04-25 12:26 26.30393 50.39560 12201 ft 303 kts 265°
2026-04-25 12:26 26.30288 50.37265 12035 ft 290 kts 265°
2026-04-25 12:26 26.30184 50.35067 11926 ft 279 kts 265°
2026-04-25 12:26 26.30081 50.32932 11691 ft 274 kts 265°
2026-04-25 12:27 26.29977 50.30792 11152 ft 276 kts 265°
2026-04-25 12:27 26.29875 50.28692 10408 ft 275 kts 265°
2026-04-25 12:27 26.29771 50.26560 9602 ft 275 kts 265°
2026-04-25 12:27 26.29668 50.24431 8756 ft 276 kts 265°
2026-04-25 12:28 26.29563 50.22289 7984 ft 275 kts 265°
2026-04-25 12:28 26.29456 50.20166 7304 ft 271 kts 264°
2026-04-25 12:28 26.29339 50.18050 6981 ft 274 kts 265°
2026-04-25 12:28 26.29226 50.15943 6674 ft 271 kts 265°
2026-04-25 12:29 26.29117 50.13845 6376 ft 272 kts 265°
2026-04-25 12:29 26.29015 50.11733 6058 ft 272 kts 265°
2026-04-25 12:29 26.28910 50.09626 5750 ft 272 kts 265°
2026-04-25 12:29 26.28809 50.07539 5423 ft 269 kts 265°
2026-04-25 12:30 26.28710 50.05426 5236 ft 274 kts 265°
2026-04-25 12:30 26.28621 50.03335 4872 ft 272 kts 266°
2026-04-25 12:30 26.28530 50.01235 4524 ft 271 kts 266°
2026-04-25 12:30 26.28436 49.99136 4185 ft 271 kts 266°
2026-04-25 12:31 26.28335 49.97041 3897 ft 271 kts 265°
2026-04-25 12:31 26.28225 49.94951 3597 ft 270 kts 265°
2026-04-25 12:31 26.28101 49.92887 3412 ft 261 kts 265°
2026-04-25 12:31 26.27988 49.90909 3311 ft 250 kts 265°
2026-04-25 12:32 26.27869 49.89016 3175 ft 240 kts 268°
2026-04-25 12:32 26.28355 49.87301 3015 ft 230 kts 306°
2026-04-25 12:32 26.29569 49.86222 2882 ft 220 kts 335°
2026-04-25 12:32 26.30999 49.85792 2774 ft 205 kts 349°
2026-04-25 12:33 26.32311 49.85488 2619 ft 185 kts 348°
2026-04-25 12:33 26.33499 49.85126 2426 ft 169 kts 344°
2026-04-25 12:33 26.34584 49.84776 2205 ft 156 kts 345°
2026-04-25 12:33 26.35584 49.84470 2004 ft 142 kts 346°
2026-04-25 12:34 26.36522 49.84178 1825 ft 139 kts 346°
2026-04-25 12:34 26.37450 49.83881 1653 ft 139 kts 345°
2026-04-25 12:34 26.38378 49.83569 1379 ft 140 kts 346°
2026-04-25 12:34 26.38994 49.83374 1242 ft 137 kts 348°
2026-04-25 12:35 26.40185 49.83003 972 ft 131 kts 348°
2026-04-25 12:35 26.41069 49.82741 881 ft 133 kts 348°
2026-04-25 12:35 26.41986 49.82458 788 ft 138 kts 348°
2026-04-25 12:35 26.42905 49.82178 576 ft 135 kts 349°
2026-04-25 12:36 26.43787 49.81916 400 ft 127 kts 350°
2026-04-25 12:36 26.44633 49.81667 226 ft 127 kts 348°
2026-04-25 12:36 26.45501 49.81397 113 ft 132 kts 349°
2026-04-25 12:36 26.46298 49.81163 95 ft 106 kts 346°
2026-04-25 12:37 26.46935 49.80966 94 ft 82 kts 344°
2026-04-25 12:37 26.47342 49.80841 91 ft 37 kts 345°
2026-04-25 12:37 26.47572 49.80750 94 ft 30 kts 323°
2026-04-25 12:37 26.47718 49.80605 96 ft 29 kts 314°
2026-04-25 12:38 26.47822 49.80486 95 ft 20 kts 313°
2026-04-25 12:38 26.47833 49.80344 95 ft 21 kts 252°
2026-04-25 12:38 26.47798 49.80207 94 ft 16 kts 255°
2026-04-25 12:38 26.47764 49.80072 91 ft 20 kts 254°
2026-04-25 12:39 26.47730 49.79933 100 ft 18 kts 255°
2026-04-25 12:39 26.47695 49.79790 100 ft 20 kts 254°
2026-04-25 12:39 26.47656 49.79637 101 ft 20 kts 254°
2026-04-25 12:39 26.47617 49.79484 102 ft 22 kts 254°
2026-04-25 12:40 26.47572 49.79305 95 ft 27 kts 254°
2026-04-25 12:40 26.47534 49.79153 93 ft 18 kts 252°
2026-04-25 12:40 26.47439 49.79127 96 ft 17 kts 164°
2026-04-25 12:40 26.47336 49.79160 92 ft 16 kts 161°
2026-04-25 12:41 26.47238 49.79212 94 ft 16 kts 154°
2026-04-25 12:41 26.47150 49.79258 94 ft 11 kts 154°
2026-04-25 12:41 26.47116 49.79306 94 ft 1 kts 86°
2026-04-25 12:41 26.47123 49.79314 93 ft 3 kts 52°
2026-04-25 12:42 26.47141 49.79341 95 ft 6 kts 59°
2026-04-25 12:42 26.47150 49.79360 95 ft 0 kts 63°